Location: Newark
(40.9833°N, 0.0333°W)
Time: 01:18:09
(UTC+00:00)

deb Explorer IX - Pass Details

Date: 05 November 2020
Orbit: 537 x 1105 km, 38.8° (Epoch: 02 December)

Event Time Altitude Azimuth Distance (km) Brightness Sun altitude
Rises 02:05:46 0° 230° (SW) 2,839 - -50.3°
Reaches altitude 10° 02:08:04 10° 222° (SW) 2,005 - -49.9°
Maximum altitude 02:12:19 36° 155° (SSE) 1,088 - -49.2°
Drops below altitude 10° 02:17:14 10° 90° (E) 2,329 - -48.4°
Exits shadow 02:18:20 - 86° (E) 2,724 ? -48.2°
Sets 02:20:05 0° 82° (E) 3,367 ? -47.9°
